Weather in Kovalevo

Russia / Omsk Oblast     55°05′41″N   75°16′40″E
temp.,
°C
wind,
m/s
gust,
m/s
humid.,
%
clouds,
%
prec.,
mm/h
press.,
hPa
HPBL,
m
25 january, mon
mon2500:00−38ssw239737 0.0 104719
03:00−35s339798 0.0 104550
06:00−33sse479697 0.0 1044192
09:00−30se5894100 0.0 1041236
12:00−28se5998100 0.3 1040265
15:00−26se4796100 0.3 1037299
18:00−27ese4797100 0.4 1037227
21:00−28ese359886 0.0 1037110
26 january, tue
tue2600:00−29ese339889 0.1 103746
03:00−29ese339895 0.0 103752
06:00−26ese239798 0.0 1037131
09:00−26se3597100 0.0 1037134
12:00−22sse4696100 0.0 1036238
15:00−20sse469796 0.1 1034253
18:00−18s499697 0.3 1033266
21:00−16s489694 0.2 1032238
27 january, wed
wed2700:00−13ssw479593 0.4 1029190
03:00−9sw499584 0.1 1028257
06:00−8wsw6109492 0.2 1027295
09:00−10wsw61094100 0.1 1027263
12:00−8wsw61294100 0.1 1027361
15:00−7wsw61194100 0.0 1027420
18:00−6w51094100 0.1 1028606
21:00−5w4994100 0.1 1028528
28 january, thu
thu2800:00−5w5993100 0.3 1028488
03:00−6w51094100 0.1 1028482
06:00−7w51094100 0.1 1028427
09:00−11wsw489699 0.1 1029145
12:00−9wsw5119488 0.1 1029282
15:00−3wsw71194100 0.0 1028463
18:00−5wsw61293100 0.1 1028338
21:00−7wsw61196100 0.0 1028332
29 january, fri
fri2900:00−4wsw61493100 0.0 1029450
03:00−7wsw61194100 0.0 1029322
06:00−6wsw5109799 0.0 1029327
09:00−8wsw61392100 0.0 1029288
12:00−7wsw61288100 0.0 1029334
15:00−6wsw61287100 0.0 1029352
18:00−7wsw61389100 0.0 1029286
21:00−8wsw51187100 0.0 1029250